FW9587 Weather Reports


time (UTC)temp
C
wind
direction
speed
KPH
gust
KPH
rain 1hr
cm
rain 24hr
cm
rain mn
cm
humidity
%
barometer
mb
20260506014024 21 190 4.8 16.1 0.00 0.00 0.00 58 1011.1
20260506013525 21 134 6.4 16.1 0.00 0.00 0.00 58 1010.8
20260506013046 21 147 4.8 19.3 0.00 0.00 0.00 58 1010.9
20260506012526 21 204 6.4 19.3 0.00 0.00 0.00 58 1010.9
20260506012027 21 210 6.4 19.3 0.00 0.00 0.00 57 1010.9
20260506011540 21 223 6.4 17.7 0.00 0.00 0.00 57 1010.9
20260506011027 22 189 8.0 20.9 0.00 0.00 0.00 57 1010.7
20260506010526 22 169 6.4 20.9 0.00 0.00 0.00 57 1010.8
20260506010039 22 135 4.8 16.1 0.00 0.00 0.00 56 1010.7
20260506005526 22 196 6.4 17.7 0.00 0.00 0.00 56 1010.6
20260506005027 22 163 8.0 17.7 0.00 0.00 0.00 55 1010.5
20260506004610 22 163 8.0 17.7 0.00 0.00 0.00 54 1010.4
20260506004024 22 172 6.4 17.7 0.00 0.00 0.00 53 1010.4
20260506003525 22 166 8.0 17.7 0.00 0.00 0.00 52 1010.2
20260506003042 22 188 6.4 16.1 0.00 0.00 0.00 52 1010.3
20260506002525 23 207 6.4 22.5 0.00 0.00 0.00 51 1010.1
20260506002025 23 173 6.4 22.5 0.00 0.00 0.00 50 1010.1
20260506001544 23 192 9.7 22.5 0.00 0.00 0.00 49 1010.1
20260506001025 23 198 8.0 19.3 0.00 0.00 0.00 47 1010.0
20260506000526 23 137 8.0 19.3 0.00 0.00 0.00 46 1010.0
20260506000045 24 184 9.7 19.3 0.00 0.00 0.00 45 1010.0
20260505235526 24 153 6.4 19.3 0.00 0.00 0.00 44 1009.8
20260505235027 24 140 9.7 19.3 0.00 0.00 0.00 43 1009.8
20260505234606 25 150 6.4 16.1 0.00 0.00 0.00 43 1009.8
20260505234025 25 180 6.4 19.3 0.00 0.00 0.00 42 1009.7
20260505233521 25 182 4.8 19.3 0.00 0.00 0.00 43 1009.5
20260505233041 25 166 6.4 19.3 0.00 0.00 0.00 42 1009.6
20260505232526 25 186 4.8 19.3 0.00 0.00 0.00 42 1009.5
20260505232026 25 209 8.0 27.4 0.00 0.00 0.00 42 1009.5
20260505231546 25 158 9.7 27.4 0.00 0.00 0.00 41 1009.5
20260505231025 25 173 9.7 24.1 0.00 0.00 0.00 41 1009.3
20260505230525 25 182 11.3 24.1 0.00 0.00 0.00 41 1009.2
20260505230047 26 148 4.8 17.7 0.00 0.00 0.00 41 1009.2
20260505225527 26 192 9.7 19.3 0.00 0.00 0.00 40 1009.3
20260505225024 26 255 4.8 29.0 0.00 0.00 0.00 40 1009.1
20260505224543 26 195 9.7 29.0 0.00 0.00 0.00 39 1009.1
20260505224025 26 189 8.0 27.4 0.00 0.00 0.00 38 1009.2
20260505223525 26 81 6.4 20.9 0.00 0.00 0.00 38 1009.0
20260505223051 26 170 8.0 29.0 0.00 0.00 0.00 38 1008.9
20260505222525 26 178 6.4 29.0 0.00 0.00 0.00 37 1009.0
20260505222023 26 186 6.4 19.3 0.00 0.00 0.00 37 1009.0
20260505221539 27 205 8.0 32.2 0.00 0.00 0.00 36 1009.0
20260505221021 27 215 8.0 32.2 0.00 0.00 0.00 35 1008.8
20260505220525 27 200 9.7 24.1 0.00 0.00 0.00 33 1008.8
20260505220050 27 185 8.0 24.1 0.00 0.00 0.00 33 1008.7
20260505215526 27 213 8.0 24.1 0.00 0.00 0.00 32 1008.8
20260505215025 27 244 8.0 30.6 0.00 0.00 0.00 33 1008.9
20260505214547 27 173 9.7 30.6 0.00 0.00 0.00 32 1008.8
20260505214026 27 226 9.7 30.6 0.00 0.00 0.00 32 1008.7
20260505213525 27 187 6.4 25.7 0.00 0.00 0.00 31 1008.8
20260505213040 27 209 11.3 25.7 0.00 0.00 0.00 31 1008.8
20260505212525 27 233 8.0 29.0 0.00 0.00 0.00 31 1008.7
20260505212023 27 245 11.3 29.0 0.00 0.00 0.00 30 1008.7
20260505211535 27 188 12.9 29.0 0.00 0.00 0.00 33 1008.6
20260505211023 27 156 14.5 29.0 0.00 0.00 0.00 36 1008.6
20260505210521 27 151 11.3 24.1 0.00 0.00 0.00 36 1008.5
20260505210043 27 207 8.0 22.5 0.00 0.00 0.00 36 1008.6
20260505205526 27 163 12.9 32.2 0.00 0.00 0.00 37 1008.3
20260505205026 27 229 9.7 33.8 0.00 0.00 0.00 37 1008.5
20260505204542 27 161 11.3 33.8 0.00 0.00 0.00 37 1008.3
20260505204025 27 190 16.1 30.6 0.00 0.00 0.00 36 1008.4
20260505203522 28 236 8.0 24.1 0.00 0.00 0.00 38 1008.4
20260505203039 27 235 8.0 30.6 0.00 0.00 0.00 38 1008.5
20260505202525 27 122 11.3 32.2 0.00 0.00 0.00 38 1008.5
20260505202024 27 184 16.1 32.2 0.00 0.00 0.00 37 1008.5
20260505201535 27 213 12.9 27.4 0.00 0.00 0.00 36 1008.5
20260505201022 28 139 12.9 29.0 0.00 0.00 0.00 37 1008.5
20260505200525 28 146 8.0 29.0 0.00 0.00 0.00 37 1008.6
20260505200037 28 212 11.3 27.4 0.00 0.00 0.00 35 1008.6
20260505195524 28 230 9.7 27.4 0.00 0.00 0.00 37 1008.6
20260505195024 28 205 9.7 24.1 0.00 0.00 0.00 37 1008.7
20260505194542 27 160 8.0 24.1 0.00 0.00 0.00 38 1008.8
20260505194026 28 188 12.9 25.7 0.00 0.00 0.00 37 1008.9
20260505193521 28 187 8.0 27.4 0.00 0.00 0.00 36 1008.9
20260505193042 28 146 14.5 27.4 0.00 0.00 0.00 36 1008.9
20260505192525 28 149 6.4 32.2 0.00 0.00 0.00 37 1009.0
20260505192025 28 129 9.7 33.8 0.00 0.00 0.00 37 1008.9
20260505191540 28 171 9.7 37.0 0.00 0.00 0.00 36 1009.0
20260505191025 28 184 12.9 37.0 0.00 0.00 0.00 37 1009.2
20260505190528 28 173 11.3 25.7 0.00 0.00 0.00 37 1009.1
20260505190046 28 158 11.3 22.5 0.00 0.00 0.00 36 1009.1
20260505185522 28 181 9.7 22.5 0.00 0.00 0.00 39 1009.2
20260505185022 28 213 6.4 24.1 0.00 0.00 0.00 38 1009.4
20260505184535 28 205 12.9 27.4 0.00 0.00 0.00 37 1009.5
20260505184021 28 234 6.4 27.4 0.00 0.00 0.00 40 1009.4
20260505183522 28 205 12.9 27.4 0.00 0.00 0.00 38 1009.6
20260505183048 27 252 6.4 22.5 0.00 0.00 0.00 38 1009.6
20260505182522 27 154 8.0 25.7 0.00 0.00 0.00 40 1009.8
20260505182022 28 167 8.0 25.7 0.00 0.00 0.00 40 1009.8
20260505181544 28 188 11.3 24.1 0.00 0.00 0.00 37 1009.8
20260505181023 28 236 6.4 17.7 0.00 0.00 0.00 39 1009.9
20260505180525 27 360 4.8 17.7 0.00 0.00 0.00 42 1009.9
20260505180041 27 220 6.4 17.7 0.00 0.00 0.00 40 1010.0
20260505175522 27 198 4.8 17.7 0.00 0.00 0.00 43 1010.2
20260505175025 27 163 9.7 22.5 0.00 0.00 0.00 41 1010.2
20260505174536 27 213 9.7 25.7 0.00 0.00 0.00 41 1010.2
20260505174025 27 189 8.0 25.7 0.00 0.00 0.00 41 1010.3
20260505173523 27 0 6.4 17.7 0.00 0.00 0.00 41 1010.3
20260505173046 27 180 6.4 17.7 0.00 0.00 0.00 41 1010.4
20260505172524 27 182 8.0 17.7 0.00 0.00 0.00 44 1010.4
20260505172021 27 231 4.8 12.9 0.00 0.00 0.00 46 1010.4
20260505171543 27 277 4.8 14.5 0.00 0.00 0.00 43 1010.4
20260505171026 27 282 3.2 17.7 0.00 0.00 0.00 44 1010.5
20260505170521 27 167 4.8 19.3 0.00 0.00 0.00 42 1010.6
20260505170042 27 209 4.8 19.3 0.00 0.00 0.00 44 1010.5
20260505165525 27 126 3.2 19.3 0.00 0.00 0.00 45 1010.6
20260505165023 26 192 8.0 19.3 0.00 0.00 0.00 43 1010.5
20260505164538 26 5 8.0 24.1 0.00 0.00 0.00 44 1010.6
20260505164025 26 175 3.2 24.1 0.00 0.00 0.00 47 1010.7
20260505163521 26 97 8.0 19.3 0.00 0.00 0.00 46 1010.7
20260505163036 26 198 8.0 16.1 0.00 0.00 0.00 46 1010.7
20260505162525 26 139 4.8 16.1 0.00 0.00 0.00 46 1010.9
20260505162025 26 170 6.4 19.3 0.00 0.00 0.00 44 1010.8
20260505161544 26 161 4.8 19.3 0.00 0.00 0.00 47 1010.9
20260505161026 26 178 4.8 17.7 0.00 0.00 0.00 48 1010.9
20260505160525 25 223 4.8 19.3 0.00 0.00 0.00 50 1011.1
20260505153040 24 236 3.2 14.5 0.00 0.00 0.00 50 1011.5
20260505152524 24 148 6.4 11.3 0.00 0.00 0.00 49 1011.4
20260505152026 25 225 4.8 14.5 0.00 0.00 0.00 51 1011.6
20260505151546 24 209 4.8 16.1 0.00 0.00 0.00 52 1011.5
20260505151022 23 194 3.2 16.1 0.00 0.00 0.00 51 1011.4
20260505150521 23 192 3.2 17.7 0.00 0.00 0.00 52 1011.4
20260505140522 21 203 6.4 16.1 0.00 0.00 0.00 56 1012.1
20260505125024 19 192 6.4 17.7 0.00 0.00 0.00 62 1011.9
20260505124548 18 176 6.4 17.7 0.00 0.00 0.00 63 1011.9
20260505124024 18 154 1.6 19.3 0.00 0.00 0.00 65 1011.9
20260505123527 18 175 8.0 19.3 0.00 0.00 0.00 66 1012.0
20260505123042 17 140 3.2 11.3 0.00 0.00 0.00 72 1011.8
20260505122525 16 187 3.2 11.3 0.00 0.00 0.00 74 1011.9
20260505122026 16 161 4.8 11.3 0.00 0.00 0.00 78 1011.9
20260505121542 15 141 1.6 8.0 0.00 0.00 0.00 81 1012.0
20260505121025 15 148 3.2 8.0 0.00 0.00 0.00 84 1012.0
20260505120524 14 172 0.0 4.8 0.00 0.00 0.00 86 1011.8
20260505120047 14 189 0.0 4.8 0.00 0.00 0.00 86 1011.8
20260505115524 13 0 0.0 1.6 0.00 0.00 0.00 87 1011.7
20260505115026 13 0 0.0 1.6 0.00 0.00 0.00 87 1011.8
20260505114546 13 184 0.0 1.6 0.00 0.00 0.00 87 1011.8
20260505114128 13 0 0.0 1.6 0.00 0.00 0.00 87 1011.7
20260505113526 13 0 0.0 0.0 0.00 0.00 0.00 87 1011.7
20260505113038 12 0 0.0 0.0 0.00 0.00 0.00 87 1011.8
20260505112529 12 0 0.0 0.0 0.00 0.00 0.00 87 1011.8
20260505112025 12 0 0.0 0.0 0.00 0.00 0.00 87 1011.8
20260505111536 12 0 0.0 0.0 0.00 0.00 0.00 87 1011.9
20260505111024 12 0 0.0 0.0 0.00 0.00 0.00 86 1011.7
20260505110526 12 0 0.0 1.6 0.00 0.00 0.00 87 1011.7
20260505102029 13 0 0.0 0.0 0.00 0.00 0.00 83 1011.2
20260505101543 13 0 0.0 0.0 0.00 0.00 0.00 82 1011.2
20260505101026 13 0 0.0 0.0 0.00 0.00 0.00 82 1011.1
20260505100525 13 0 0.0 0.0 0.00 0.00 0.00 82 1011.1
20260505100037 13 0 0.0 1.6 0.00 0.00 0.00 82 1011.2
20260505095526 13 0 0.0 3.2 0.00 0.00 0.00 82 1011.1
20260505095024 13 0 0.0 3.2 0.00 0.00 0.00 82 1011.1
20260505094534 13 0 0.0 3.2 0.00 0.00 0.00 81 1011.1
20260505094024 13 184 0.0 3.2 0.00 0.00 0.00 81 1011.0
20260505093526 13 0 0.0 3.2 0.00 0.00 0.00 81 1011.0
20260505093041 13 0 0.0 3.2 0.00 0.00 0.00 80 1011.0
20260505092521 13 0 0.0 1.6 0.00 0.00 0.00 80 1010.9
20260505092026 13 0 0.0 1.6 0.00 0.00 0.00 80 1010.8
20260505091538 13 0 0.0 1.6 0.00 0.00 0.00 80 1010.7
20260505091024 13 0 0.0 1.6 0.00 0.00 0.00 80 1010.8
20260505090525 13 0 0.0 3.2 0.00 0.00 0.00 80 1010.8
20260505090036 13 0 0.0 3.2 0.00 0.00 0.00 80 1010.9
20260505085527 13 0 0.0 3.2 0.00 0.00 0.00 80 1010.9
20260505085026 13 0 0.0 1.6 0.00 0.00 0.00 80 1010.9
20260505084546 13 0 0.0 1.6 0.00 0.00 0.00 80 1010.9
20260505084025 13 0 0.0 3.2 0.00 0.00 0.00 80 1011.0
20260505083525 13 0 0.0 4.8 0.00 0.00 0.00 81 1010.9
20260505083041 13 0 0.0 4.8 0.00 0.00 0.00 80 1010.8
20260505082525 13 178 0.0 3.2 0.00 0.00 0.00 80 1010.9
20260505082025 13 164 0.0 3.2 0.00 0.00 0.00 80 1011.0
20260505081535 13 0 0.0 4.8 0.00 0.00 0.00 80 1011.0
20260505081026 13 0 0.0 6.4 0.00 0.00 0.00 80 1011.0
20260505080525 13 183 1.6 6.4 0.00 0.00 0.00 80 1010.9
20260505080037 13 170 0.0 3.2 0.00 0.00 0.00 79 1011.0
20260505075524 13 0 0.0 8.0 0.00 0.00 0.00 79 1011.0
20260505075025 13 194 1.6 8.0 0.00 0.00 0.00 79 1010.9
20260505074537 13 169 1.6 8.0 0.00 0.00 0.00 78 1011.0
20260505074022 13 165 0.0 4.8 0.00 0.00 0.00 77 1010.9
20260505073522 13 0 0.0 4.8 0.00 0.00 0.00 77 1010.9
20260505073044 13 0 0.0 6.4 0.00 0.00 0.00 76 1010.9
20260505072525 14 179 1.6 6.4 0.00 0.00 0.00 76 1010.8
20260505072027 14 182 0.0 6.4 0.00 0.00 0.00 76 1010.8
20260505071537 14 0 0.0 6.4 0.00 0.00 0.00 76 1010.7
20260505071026 14 200 0.0 8.0 0.00 0.00 0.00 76 1010.8
20260505070525 14 0 1.6 8.0 0.00 0.00 0.00 76 1010.7
20260505070049 14 182 1.6 8.0 0.00 0.00 0.00 76 1010.6
20260505065525 14 159 1.6 11.3 0.00 0.00 0.00 76 1010.5
20260505065024 14 136 3.2 11.3 0.00 0.00 0.00 76 1010.6
20260505064537 14 175 3.2 9.7 0.00 0.00 0.00 76 1010.5
20260505064024 14 168 3.2 9.7 0.00 0.00 0.00 75 1010.6
20260505063524 14 171 3.2 9.7 0.00 0.00 0.00 75 1010.7
20260505063043 14 222 3.2 9.7 0.00 0.00 0.00 75 1010.7
20260505062526 14 170 1.6 6.4 0.00 0.00 0.00 74 1010.7
20260505062025 14 180 3.2 9.7 0.00 0.00 0.00 74 1010.7
20260505061541 14 182 1.6 9.7 0.00 0.00 0.00 74 1010.8
20260505061025 14 171 1.6 11.3 0.00 0.00 0.00 73 1010.8
20260505060526 15 152 1.6 11.3 0.00 0.00 0.00 73 1010.9
20260505060037 15 161 3.2 9.7 0.00 0.00 0.00 73 1010.8
20260505055525 15 0 1.6 8.0 0.00 0.00 0.00 73 1010.9
20260505055026 15 190 1.6 8.0 0.00 0.00 0.00 72 1010.8
20260505054539 15 175 1.6 8.0 0.00 0.00 0.00 72 1010.8
20260505054025 15 182 1.6 9.7 0.00 0.00 0.00 72 1010.8
20260505053529 15 138 1.6 9.7 0.00 0.00 0.00 72 1010.9
20260505053054 15 0 1.6 9.7 0.00 0.00 0.00 71 1010.8
20260505052941 15 176 1.6 9.7 0.00 0.00 0.00 71 1010.9
20260505052525 15 176 1.6 9.7 0.00 0.00 0.00 71 1010.9
20260505052025 15 186 1.6 9.7 0.00 0.00 0.00 70 1011.0
20260505051538 15 0 3.2 9.7 0.00 0.00 0.00 70 1010.9
20260505051053 15 171 1.6 9.7 0.00 0.00 0.00 70 1010.9
20260505050526 15 184 3.2 9.7 0.00 0.00 0.00 70 1011.0
20260505041551 15 167 3.2 11.3 0.00 0.00 0.00 67 1011.1
20260505041024 16 0 3.2 11.3 0.00 0.00 0.00 67 1011.0
20260505040526 16 119 4.8 11.3 0.00 0.00 0.00 67 1010.9
20260505040050 16 167 3.2 9.7 0.00 0.00 0.00 67 1011.0
20260505035521 16 252 3.2 9.7 0.00 0.00 0.00 67 1011.0
20260505035025 16 144 1.6 12.9 0.00 0.00 0.00 67 1011.1
20260505034535 16 155 4.8 12.9 0.00 0.00 0.00 66 1011.1
20260505034025 16 153 4.8 11.3 0.00 0.00 0.00 66 1011.0
20260505033525 16 184 4.8 12.9 0.00 0.00 0.00 67 1010.9
20260505033035 16 168 3.2 12.9 0.00 0.00 0.00 67 1011.1
20260505032525 15 181 3.2 12.9 0.00 0.00 0.00 67 1011.2
20260505032025 15 151 3.2 12.9 0.00 0.00 0.00 68 1011.1
20260505031545 15 161 1.6 9.7 0.00 0.00 0.00 68 1011.2
20260505031024 15 180 0.0 6.4 0.00 0.00 0.00 68 1011.2
20260505030525 15 159 0.0 3.2 0.00 0.00 0.00 68 1011.1
20260505030043 14 157 0.0 1.6 0.00 0.00 0.00 68 1011.3
20260505025524 15 0 0.0 1.6 0.00 0.00 0.00 67 1011.1
20260505025024 15 0 0.0 1.6 0.00 0.00 0.00 67 1011.3
20260505024547 15 0 0.0 3.2 0.00 0.00 0.00 66 1011.4
20260505024025 15 0 0.0 3.2 0.00 0.00 0.00 65 1011.3
20260505023525 15 151 0.0 3.2 0.00 0.00 0.00 65 1011.3
20260505023038 15 0 0.0 3.2 0.00 0.00 0.00 64 1011.2
20260505022525 15 0 0.0 4.8 0.00 0.00 0.00 63 1011.3
20260505022025 16 0 0.0 8.0 0.00 0.00 0.00 62 1011.3
20260505021538 16 0 1.6 8.0 0.00 0.00 0.00 61 1011.4
20260505021024 16 132 1.6 8.0 0.00 0.00 0.00 60 1011.5
20260505020524 16 153 3.2 8.0 0.00 0.00 0.00 59 1011.4
20260505020034 16 161 1.6 8.0 0.00 0.00 0.00 59 1011.4
20260505015525 16 180 1.6 8.0 0.00 0.00 0.00 58 1011.4
20260505015026 16 155 1.6 8.0 0.00 0.00 0.00 57 1011.4
20260505014601 16 169 1.6 8.0 0.00 0.00 0.00 56 1011.4